Location: ??
(35.5052°N, 139.7262°E)
Time: 17:39:37
(UTC+00:00)

Nauka - Pass Details

Date: 19 September 2021
Orbit: 417 x 423 km, 51.6° (Epoch: 24 October)

Event Time Altitude Azimuth Distance (km) Brightness Sun altitude
Rises 10:14:12 0° 270° (W) 2,355 ? -19.2°
Reaches altitude 10° 10:16:57 10° 294° (WNW) 1,495 ? -19.7°
Maximum altitude 10:19:01 15° 332° (NNW) 1,217 ? -20.1°
Drops below altitude 10° 10:21:06 10° 11° (N) 1,501 ? -20.5°
Enters shadow 10:21:38 - 17° (NNE) 1,642 ? -20.6°
